SQ4IXR-4 Weather Reports


Display with metric or nautical units.
time (UTC)temp
F
wind
direction
speed
MPH
gust
MPH
rain 1hr
in
rain 24hr
in
rain mn
in
humidity
%
barometer
mb
20260506181906 68 0.0 0.0 0.00 0.00 0.00 55 1009.1
20260506180521 69 0.0 0.0 0.00 0.00 0.00 51 1008.8
20260506175138 70 0.0 0.0 0.00 0.00 0.00 48 1008.6
20260506173755 72 0.0 0.0 0.00 0.00 0.00 45 1008.4
20260506172411 72 0.0 0.0 0.00 0.00 0.00 44 1008.3
20260506171032 73 0.0 0.0 0.00 0.00 0.00 42 1008.2
20260506165646 74 0.0 0.0 0.00 0.00 0.00 41 1008.0
20260506164302 75 0.0 0.0 0.00 0.00 0.00 38 1007.8
20260506162919 76 0.0 0.0 0.00 0.00 0.00 37 1007.8
20260506161536 76 0.0 0.0 0.00 0.00 0.00 35 1007.7
20260506160155 78 0.0 0.0 0.00 0.00 0.00 34 1007.5
20260506154813 79 0.0 0.0 0.00 0.00 0.00 32 1007.4
20260506153432 82 0.0 0.0 0.00 0.00 0.00 30 1007.2
20260506152045 80 0.0 0.0 0.00 0.00 0.00 31 1007.3
20260506150702 80 0.0 0.0 0.00 0.00 0.00 30 1007.2
20260506145321 82 0.0 0.0 0.00 0.00 0.00 29 1007.0
20260506143936 81 0.0 0.0 0.00 0.00 0.00 28 1007.0
20260506142554 81 0.0 0.0 0.00 0.00 0.00 26 1006.9
20260506141212 84 0.0 0.0 0.00 0.00 0.00 24 1006.5
20260506135828 85 0.0 0.0 0.00 0.00 0.00 23 1006.6
20260506134442 84 0.0 0.0 0.00 0.00 0.00 23 1006.4
20260506133058 83 0.0 0.0 0.00 0.00 0.00 24 1006.5
20260506131711 82 0.0 0.0 0.00 0.00 0.00 24 1006.7
20260506130329 83 0.0 0.0 0.00 0.00 0.00 23 1006.8
20260506124945 85 0.0 0.0 0.00 0.00 0.00 22 1006.9
20260506123557 83 0.0 0.0 0.00 0.00 0.00 23 1006.9
20260506122220 86 0.0 0.0 0.00 0.00 0.00 20 1006.8
20260506120841 89 0.0 0.0 0.00 0.00 0.00 22 1006.7
20260506115441 93 0.0 0.0 0.00 0.00 0.00 20 1006.7
20260506114055 90 0.0 0.0 0.00 0.00 0.00 22 1007.0
20260506112712 84 0.0 0.0 0.00 0.00 0.00 26 1007.5
20260506111334 86 0.0 0.0 0.00 0.00 0.00 24 1007.7
20260506105944 85 0.0 0.0 0.00 0.00 0.00 25 1007.9
20260506104558 84 0.0 0.0 0.00 0.00 0.00 27 1008.2
20260506103213 84 0.0 0.0 0.00 0.00 0.00 31 1008.1
20260506101829 83 0.0 0.0 0.00 0.00 0.00 32 1008.4
20260506100455 93 0.0 0.0 0.00 0.00 0.00 25 1008.3
20260506095106 85 0.0 0.0 0.00 0.00 0.00 31 1008.6
20260506093721 84 0.0 0.0 0.00 0.00 0.00 33 1008.9
20260506092349 86 0.0 0.0 0.00 0.00 0.00 30 1008.8
20260506091007 91 0.0 0.0 0.00 0.00 0.00 26 1008.8
20260506085638 113 0.0 0.0 0.00 0.00 0.00 14 1008.2
20260506084300 115 0.0 0.0 0.00 0.00 0.00 14 1008.4
20260506082912 112 0.0 0.0 0.00 0.00 0.00 15 1008.3
20260506081521 106 0.0 0.0 0.00 0.00 0.00 18 1008.7
20260506080148 110 0.0 0.0 0.00 0.00 0.00 16 1008.5
20260506073329 84 0.0 0.0 0.00 0.00 0.00 35 1009.4
20260506071945 76 0.0 0.0 0.00 0.00 0.00 43 1009.9
20260506070624 91 0.0 0.0 0.00 0.00 0.00 27 1009.5
20260506062436 65 0.0 0.0 0.00 0.00 0.00 69 1010.6
20260506061051 65 0.0 0.0 0.00 0.00 0.00 70 1010.7
20260506050208 58 0.0 0.0 0.00 0.00 0.00 89 1011.0
20260506044826 57 0.0 0.0 0.00 0.00 0.00 91 1011.3
20260506043443 57 0.0 0.0 0.00 0.00 0.00 93 1011.2
20260506042059 57 0.0 0.0 0.00 0.00 0.00 97 1011.3
20260506040714 55 0.0 0.0 0.00 0.00 0.00 10 1011.5
20260506035328 54 0.0 0.0 0.00 0.00 0.00 10 1011.4
20260506033945 54 0.0 0.0 0.00 0.00 0.00 10 1011.5
20260506032600 53 0.0 0.0 0.00 0.00 0.00 10 1011.6
20260506031217 52 0.0 0.0 0.00 0.00 0.00 10 1011.7
20260506025833 52 0.0 0.0 0.00 0.00 0.00 10 1011.5
20260506024450 52 0.0 0.0 0.00 0.00 0.00 10 1011.4
20260506023106 52 0.0 0.0 0.00 0.00 0.00 10 1011.2
20260506021724 53 0.0 0.0 0.00 0.00 0.00 10 1011.4
20260506020341 53 0.0 0.0 0.00 0.00 0.00 10 1011.4
20260506014958 53 0.0 0.0 0.00 0.00 0.00 10 1011.4
20260506013615 53 0.0 0.0 0.00 0.00 0.00 10 1011.3
20260506012230 54 0.0 0.0 0.00 0.00 0.00 10 1011.2
20260506010847 54 0.0 0.0 0.00 0.00 0.00 10 1011.2
20260506004122 54 0.0 0.0 0.00 0.00 0.00 10 1011.1
20260506002737 55 0.0 0.0 0.00 0.00 0.00 10 1011.1
20260506001354 55 0.0 0.0 0.00 0.00 0.00 10 1011.1
20260506000012 56 0.0 0.0 0.00 0.00 0.00 10 1011.0
20260505234626 56 0.0 0.0 0.00 0.00 0.00 10 1011.0
20260505233244 56 0.0 0.0 0.00 0.00 0.00 10 1010.9
20260505231900 56 0.0 0.0 0.00 0.00 0.00 10 1010.9
20260505230517 57 0.0 0.0 0.00 0.00 0.00 10 1010.9
20260505225134 57 0.0 0.0 0.00 0.00 0.00 10 1011.1
20260505223750 57 0.0 0.0 0.00 0.00 0.00 10 1011.2
20260505222408 57 0.0 0.0 0.00 0.00 0.00 10 1011.3
20260505221025 57 0.0 0.0 0.00 0.00 0.00 10 1011.5
20260505215642 57 0.0 0.0 0.00 0.00 0.00 10 1011.7
20260505214259 58 0.0 0.0 0.00 0.00 0.00 10 1011.5
20260505212916 58 0.0 0.0 0.00 0.00 0.00 10 1011.6
20260505211532 58 0.0 0.0 0.00 0.00 0.00 10 1011.5
20260505210149 59 0.0 0.0 0.00 0.00 0.00 10 1011.4
20260505204805 59 0.0 0.0 0.00 0.00 0.00 10 1011.4
20260505203423 59 0.0 0.0 0.00 0.00 0.00 10 1011.4
20260505202039 59 0.0 0.0 0.00 0.00 0.00 10 1011.3
20260505200656 60 0.0 0.0 0.00 0.00 0.00 10 1011.3
20260505195313 60 0.0 0.0 0.00 0.00 0.00 10 1011.1
20260505193931 60 0.0 0.0 0.00 0.00 0.00 10 1011.1
20260505192546 61 0.0 0.0 0.00 0.00 0.00 10 1011.0
20260505191202 61 0.0 0.0 0.00 0.00 0.00 10 1011.0
20260505185820 61 0.0 0.0 0.00 0.00 0.00 10 1011.0
20260505184438 62 0.0 0.0 0.00 0.00 0.00 10 1010.9
20260505183055 62 0.0 0.0 0.00 0.00 0.00 10 1010.8